Regional Weather Roundup
Issued by NWS

Home | Current Version | Previous Version | Graphics & Text | Print | Product List | Glossary On
Versions: 1 2 3 4 5 6 7 8 9 10 11 12 13 14 15 16 17 18 19 20 21 22 23 24 25 26 27 28 29 30 31 32 33 34 35 36 37 38 39 40 41 42 43 44 45 46 47 48 49 50
109
ASUS45 KBOU 171307
RWRCO

WEATHER ROUNDUP FOR COLORADO
NATIONAL WEATHER SERVICE DENVER/BOULDER CO
700 AM MDT THU AUG 17 2017

NOTE: "FAIR" INDICATES FEW OR NO CLOUDS BELOW 12000 FEET WITH NO
SIGNIFICANT WEATHER AND/OR OBSTRUCTIONS TO VISIBILITY.

COZ001>005-013-030-031-171400-
...NORTHWEST COLORADO...

CITY           SKY/WX    TMP DP  RH WIND       PRES   REMARKS
CRAIG          FAIR      43  39  86 SW5       30.26R
HAYDEN         FAIR      48  39  71 E8        30.29S
MEEKER         FAIR      50  39  66 VRB3      30.28R
RABBIT EARS PA FAIR      45  30  57 W3        30.50R
STEAMBOAT SPGS FAIR      44  40  85 CALM      30.30R
WALDEN         MOCLDY    39  36  87 E5        30.37S
$$

COZ006>008-011-171400-
...WEST CENTRAL VALLEYS...

CITY           SKY/WX    TMP DP  RH WIND       PRES   REMARKS
GRAND JUNCTION FAIR      61  39  44 SE12      30.17R
MONTROSE       FAIR      54  38  54 SE10      30.25R
EAGLE          FAIR      49  38  65 CALM      30.34R
RIFLE          FAIR      54  42  64 CALM      30.24R
DELTA          FAIR      59  37  44 NE7       30.22R
NUCLA          FAIR      52  28  40 SE9       30.29R
$$

COZ017>023-064>068-171400-
...SOUTHWEST COLORADO...

CITY           SKY/WX    TMP DP  RH WIND       PRES   REMARKS
DURANGO        FAIR      45  30  55 CALM      30.30R
CORTEZ         FAIR      43  34  70 NE5       30.25R
PAGOSA SPRINGS MOCLDY    44  32  64 W3        30.38R
TELLURIDE      FAIR      46  29  52 SE5       30.47S
WOLF CREEK PAS FAIR      45  23  42 SW5       30.67S
$$

COZ009-010-012-014-032>034-037-058>063-171400-
...CENTRAL COLORADO...

CITY           SKY/WX    TMP DP  RH WIND       PRES   REMARKS
ASPEN          FAIR      43  34  70 SW7       30.36R
BUENA VISTA    FAIR      46  36  66 NW10      30.40S
COPPER MTN     FAIR      45  28  53 W13       30.60R
BERTHOUD PASS  FAIR      36  32  87 NW21      30.60S
COTTONWOOD PAS FAIR      50  30  46 CALM      30.49R
GUNNISON       FAIR      36  33  89 CALM      30.42R
KREMMLING      FAIR      45  41  87 CALM      30.38R
LEADVILLE      FAIR      32  30  92 NE3       30.48R
MONARCH PASS   FAIR      43  27  52 W15       30.71R
SALIDA         FAIR      50  40  69 NW6       30.45S
SUNLIGHT       FAIR      46  30  53 NW3       30.57R
WILKERSON PASS FAIR      41  39  93 W7        30.59R FOG
$$

COZ069>075-171400-
...SAN LUIS VALLEY/SANGRE DE CRISTO MOUNTAINS...

CITY           SKY/WX    TMP DP  RH WIND       PRES   REMARKS
ALAMOSA        MOCLDY    43  38  82 CALM      30.36R
DEL NORTE      FAIR      48  33  55 W16       30.39R
LA VETA PASS   NOT AVBL
SAGUACHE       FAIR      48  32  53 N10       30.39R
$$

COZ035-036-038>040-171400-
...NORTHERN COLORADO FRONT RANGE...

CITY           SKY/WX    TMP DP  RH WIND       PRES   REMARKS
DENVER INTL AP FAIR      62  48  60 SW16      30.15S
DMNS CITY PARK   N/A     61  48  61 SW9       30.17R
AURORA         PTCLDY    61  48  62 S13       30.18R
FRONT RANGE AP FAIR      61  50  67 S9G16     30.17R
ERIE MUNI ARPT FAIR      53  49  85 CALM      30.20R
BOULDER MUN AP FAIR      55  46  71 CALM      30.15S
CENTENNIAL     FAIR      61  48  62 S7        30.20R
BROOMFIELD     MOCLDY    59  45  58 SW3       30.17S
FORT COLLINS   FAIR      53  49  86 CALM      30.15R
LONGMONT       FAIR      54  49  82 CALM      30.17R HAZE
$$

COZ041-046-047-076>085-087-088-171400-
...PIKES PEAK/PALMER DIVIDE AND SOUTHERN FOOTHILLS...

CITY           SKY/WX    TMP DP  RH WIND       PRES   REMARKS
COLO. SPRINGS  MOCLDY    61  50  67 CALM      30.26S
A. F. ACADEMY  MOCLDY    50  48  95 N8        30.27R
SCHRIEVER AFB  MOCLDY    59  48  67 SW6       30.26S
CHEYENNE MTN   MOCLDY    58  47  67 NW3       30.24R
ELLICOTT       FAIR     N/A N/A N/A S3        30.25R
FALCON         FAIR      55  46  69 W5        30.30S
FORT CARSON    CLOUDY    58  50  76 NW5       30.23S
LIMON          FAIR      55  52  89 SE7       30.20S
MONUMENT HILL  FAIR      54  45  71 SW8       30.30R
CANON CITY     CLEAR     57  52  82 W9        30.22S
WALSENBURG     FAIR      57  48  72 MISG      30.26R
TRINIDAD       FAIR      57  50  77 NW7       30.23R
$$

COZ042>045-048>051-090-091-171400-
...NORTHEAST COLORADO...

CITY           SKY/WX    TMP DP  RH WIND       PRES   REMARKS
GREELEY ARPT   FAIR      51  49  92 CALM      30.14R
AKRON          FAIR      59  48  67 S9        30.15R
BURLINGTON     MOCLDY    60  57  89 SW12      30.16S
WRAY           NOT AVBL
YUMA           FAIR      55  52  88 S9        30.13S
STERLING       FAIR      54  52  94 S5        30.11R
HOLYOKE        FAIR      59  54  82 SW7       30.12R
FORT MORGAN    FAIR      53  49  85 CALM      30.13S
$$

COZ086-089-092>099-171400-
...SOUTHEAST COLORADO...

CITY           SKY/WX    TMP DP  RH WIND       PRES   REMARKS
PUEBLO         FAIR      60  53  77 CALM      30.18R
LA JUNTA       FAIR      61  56  83 E3        30.17R
LAMAR          MOCLDY    62  58  86 NE5       30.14R
SPRINGFIELD      N/A     61  57  87 CALM      30.19R
$$




USA.gov is the U.S. government's official web portal to all federal, state and local government web resources and services.